Location: Treviso
(45.6669°N, 12.2430°E)
Time: 02:08:15
(UTC+01:00)

ISS - Pass Details

Date: 06 March 2026
Orbit: 416 x 426 km, 51.6° (Epoch: 9 March)

Event Time Altitude Azimuth Distance (km) Brightness Sun altitude
Exits shadow 05:21:07 12° 202° (SSW) 1,366 -1.4 -14.7°
Drops below altitude 10° 05:21:43 10° 193° (SSW) 1,484 -1.2 -14.6°
Sets 05:24:30 0° 167° (SSE) 2,340 0.1 -14.1°
